Location: Newark
(55.7083°N, 13.1992°E)
Time: 18:44:10
(UTC+00:00)

PicSat - Visible Passes

Search period start: 10 April 2020 00:00
Search period end: 20 April 2020 00:00
Orbit: 485 x 496 km, 97.5° (Epoch: 09 April)

Date Brightness Start Highest point End Pass type
(mag) Time Alt. Az. Time Alt. Az. Time Alt. Az.
10 Apr ? 19:39:10 18° E 19:40:44 24° ENE 19:43:44 10° N visible
10 Apr ? 21:13:39 39° WSW 21:14:08 42° W 21:17:39 10° NNW visible
11 Apr ? 19:16:19 11° E 19:18:24 16° ENE 19:20:45 10° NNE visible
11 Apr ? 20:50:48 53° SSW 20:51:32 72° WSW 20:55:13 10° NNW visible
12 Apr ? 18:55:03 10° ENE 18:56:09 11° NE 18:57:14 10° NE visible
12 Apr ? 20:27:57 42° SE 20:29:01 67° ENE 20:32:40 10° N visible
12 Apr ? 22:02:26 15° W 22:03:00 15° W 22:05:13 10° NW visible
13 Apr ? 20:05:07 27° ESE 20:06:32 40° ENE 20:10:01 10° N visible
13 Apr ? 21:39:35 23° WSW 21:40:15 24° W 21:43:18 10° NW visible
14 Apr ? 19:42:16 17° ESE 19:44:08 26° ENE 19:47:14 10° N visible
14 Apr ? 21:16:44 33° SW 21:17:35 39° W 21:21:03 10° NNW visible
15 Apr ? 19:19:25 10° E 19:21:48 17° ENE 19:24:16 10° NNE visible
15 Apr ? 20:53:53 42° S 20:54:58 67° WSW 20:58:38 10° NNW visible
16 Apr ? 18:58:08 10° ENE 18:59:30 12° NE 19:00:53 10° NNE visible
16 Apr ? 20:31:02 36° SSE 20:32:24 73° ENE 20:36:05 10° NNW visible
16 Apr ? 22:05:31 13° WSW 22:06:26 14° W 22:08:29 10° NW visible
17 Apr ? 20:08:11 25° SE 20:09:55 43° ENE 20:13:26 10° N visible
17 Apr ? 21:42:39 20° WSW 21:43:40 22° W 21:46:38 10° NW visible
18 Apr ? 19:45:19 16° ESE 19:47:30 27° ENE 19:50:39 10° N visible
18 Apr ? 21:19:48 28° SW 21:20:58 36° W 21:24:24 10° NNW visible
19 Apr ? 19:22:33 10° ESE 19:25:07 18° ENE 19:27:42 10° NNE visible
19 Apr ? 20:56:56 34° S 20:58:19 62° WSW 21:01:59 10° NNW visible
